Home > Weather > Lancaster > Past weeks

Flag for USA Past Weather in Lancaster, California, USA — Yesterday and Last 2 Weeks

Now
82 °F

Sunny.


Feels Like: 80 °F
Forecast: 58 / 85 °F
Wind: No wind

Location: Lancaster / Fox Field

Current Time: May 27, 2016 at 1:11:40 PM

Latest Report: May 27, 2016 at 11:56 AM


Visibility: 10 mi

Pressure: 29.87 "Hg (27.53 "Hg at 718m altitude)

Humidity: 19%

Dew Point: 36 °F

Location of LancasterLocation

Past Weather in Lancaster — Graph

°F

Lancaster Temperature Yesterday

Maximum temperature yesterday: 80 °F (at 3:56 PM)
Minimum temperature yesterday: 57 °F (at 4:56 AM)
Average temperature yesterday: 68 °F

High & Low Weather Summary for the Past Weeks

 TemperatureHumidityPressure
High92 °F (May 12, 1:56 PM)74% (May 25, 3:56 AM)30.04 "Hg (May 25, 3:56 AM)
Low48 °F (May 21, 5:56 AM)10% (May 13, 12:56 PM)29.69 "Hg (May 19, 5:56 PM)
Average67 °F40%29.89 "Hg
* Reported May 12 11:56 AM — May 27 11:56 AM, Lancaster, Weather by CustomWeather, © 2016

Note: Actual official high and low records may vary slightly from our data, if they occured in-between our weather recording intervals... More about our weather records

Advertising

Lancaster Weather History for the Previous 24 Hours

Scroll right to see more
 ConditionsComfort  
Time TempWeatherWind HumidityBarometerVisibility
11:56 AM
Fri, May 27
82 °FSunny.No wind19%29.87 "Hg10 mi
10:56 AM78 °FSunny.No wind25%29.88 "Hg10 mi
9:56 AM75 °FSunny.No wind30%29.90 "Hg10 mi
8:56 AM72 °FSunny.No wind34%29.91 "Hg10 mi
7:56 AM68 °FSunny.No wind40%29.92 "Hg10 mi
6:56 AM61 °FSunny.No wind54%29.92 "Hg10 mi
5:56 AM58 °FClear.6 mph56%29.90 "Hg10 mi
4:56 AM60 °FClear.9 mph52%29.89 "Hg10 mi
3:56 AM61 °FClear.12 mph50%29.88 "Hg10 mi
2:56 AM62 °FClear.17 mph46%29.89 "Hg10 mi
1:56 AM63 °FClear.12 mph47%29.90 "Hg10 mi
12:56 AM63 °FClear.8 mph45%29.92 "Hg10 mi
11:56 PM
Thu, May 26
64 °FClear.10 mph45%29.92 "Hg10 mi
10:56 PM64 °FClear.15 mph45%29.93 "Hg10 mi
9:56 PM65 °FClear.16 mph44%29.93 "Hg10 mi
8:56 PM67 °FSunny.16 mph41%29.93 "Hg10 mi
7:56 PM69 °FSunny.24 mph36%29.92 "Hg10 mi
6:56 PM74 °FSunny.22 mph29%29.91 "Hg10 mi
5:56 PM77 °FSunny.22 mph26%29.90 "Hg10 mi
4:56 PM80 °FSunny.21 mph20%29.90 "Hg10 mi
3:56 PM80 °FSunny.17 mph21%29.91 "Hg10 mi
2:56 PM79 °FSunny.18 mph24%29.93 "Hg10 mi
1:56 PM79 °FSunny.13 mph25%29.95 "Hg10 mi
Weather by CustomWeather, © 2016

See weather overviewHow to use our weather pages